Year,Month,Day,Hour,Minute,Value (Times are PST for temperature in C)
2023,04,20,15,04,5.70
2023,04,20,15,06,5.70
2023,04,20,15,07,5.70
2023,04,20,15,08,5.70
2023,04,20,15,09,5.70
2023,04,20,15,10,5.60
2023,04,20,15,11,5.60
2023,04,20,15,12,5.60
2023,04,20,15,13,5.60
2023,04,20,15,14,5.60
2023,04,20,15,15,5.50
2023,04,20,15,16,5.50
2023,04,20,15,17,5.50
2023,04,20,15,18,5.50
2023,04,20,15,19,5.50
2023,04,20,15,20,5.60
2023,04,20,15,21,5.60
2023,04,20,15,22,5.50
2023,04,20,15,23,5.50
2023,04,20,15,24,5.40
2023,04,20,15,25,5.40
2023,04,20,15,26,5.40
2023,04,20,15,27,5.40
2023,04,20,15,28,5.40
2023,04,20,15,29,5.40
2023,04,20,15,30,5.50
2023,04,20,15,31,5.50
2023,04,20,15,32,5.40
2023,04,20,15,33,5.40
2023,04,20,15,34,5.40
2023,04,20,15,35,5.30
2023,04,20,15,36,5.30
2023,04,20,15,37,5.30
2023,04,20,15,38,5.30
2023,04,20,15,39,5.30
2023,04,20,15,40,5.30
2023,04,20,15,41,5.20
2023,04,20,15,42,5.20
2023,04,20,15,43,5.20
2023,04,20,15,44,5.20
2023,04,20,15,45,5.20
2023,04,20,15,46,5.20
2023,04,20,15,47,5.20
2023,04,20,15,48,5.20
2023,04,20,15,49,5.20
2023,04,20,15,50,5.20
2023,04,20,15,51,5.20
2023,04,20,15,52,5.20
2023,04,20,15,53,5.20
2023,04,20,15,54,5.20
2023,04,20,15,55,5.20
2023,04,20,15,56,5.20
2023,04,20,15,57,5.20
2023,04,20,15,58,5.20
2023,04,20,15,59,5.20
2023,04,20,16,00,5.20
2023,04,20,16,01,5.20
2023,04,20,16,02,5.20
2023,04,20,16,03,5.20
2023,04,20,16,04,5.20
2023,04,20,16,05,5.20
2023,04,20,16,06,5.20
2023,04,20,16,07,5.20
2023,04,20,16,08,5.20
2023,04,20,16,09,5.20
2023,04,20,16,10,5.20
2023,04,20,16,11,5.20
2023,04,20,16,12,5.20
2023,04,20,16,13,5.20
2023,04,20,16,14,5.20
2023,04,20,16,15,5.20
2023,04,20,16,16,5.30
2023,04,20,16,17,5.30
2023,04,20,16,18,5.30
2023,04,20,16,19,5.20
2023,04,20,16,20,5.20
2023,04,20,16,21,5.20
2023,04,20,16,22,5.20
2023,04,20,16,23,5.30
2023,04,20,16,24,5.30
2023,04,20,16,25,5.30
2023,04,20,16,26,5.40
2023,04,20,16,27,5.40
2023,04,20,16,28,5.30
2023,04,20,16,29,5.20
2023,04,20,16,30,5.20
2023,04,20,16,31,5.20
2023,04,20,16,32,5.20
2023,04,20,16,33,5.20
2023,04,20,16,34,5.20
2023,04,20,16,35,5.20
2023,04,20,16,36,5.20
2023,04,20,16,37,5.20
2023,04,20,16,38,5.20
2023,04,20,16,39,5.20
2023,04,20,16,40,5.20
2023,04,20,16,41,5.20
2023,04,20,16,42,5.30
2023,04,20,16,43,5.30
2023,04,20,16,44,5.30
2023,04,20,16,45,5.30
2023,04,20,16,46,5.30
2023,04,20,16,47,5.40
2023,04,20,16,48,5.40
2023,04,20,16,49,5.40
2023,04,20,16,50,5.40
2023,04,20,16,51,5.40
2023,04,20,16,52,5.40
2023,04,20,16,53,5.40
2023,04,20,16,54,5.40
2023,04,20,16,55,5.40
2023,04,20,16,56,5.40
2023,04,20,16,57,5.40
2023,04,20,16,58,5.40
2023,04,20,16,59,5.40
2023,04,20,17,00,5.40
2023,04,20,17,01,5.50
2023,04,20,17,02,5.50
2023,04,20,17,03,5.50
2023,04,20,17,04,5.50
2023,04,20,17,05,5.50
2023,04,20,17,06,5.50
2023,04,20,17,07,5.50
2023,04,20,17,08,5.50
2023,04,20,17,09,5.50
2023,04,20,17,10,5.40
2023,04,20,17,11,5.40
2023,04,20,17,12,5.40
2023,04,20,17,13,5.40
2023,04,20,17,14,5.40
2023,04,20,17,15,5.40
2023,04,20,17,16,5.40
2023,04,20,17,17,5.40
2023,04,20,17,18,5.40
2023,04,20,17,19,5.40
2023,04,20,17,20,5.40
2023,04,20,17,21,5.40
2023,04,20,17,22,5.50
2023,04,20,17,23,5.50
2023,04,20,17,24,5.50
2023,04,20,17,25,5.60
2023,04,20,17,26,5.60
2023,04,20,17,27,5.60
2023,04,20,17,28,5.60
2023,04,20,17,29,5.50
2023,04,20,17,30,5.50
2023,04,20,17,31,5.50
2023,04,20,17,32,5.50
2023,04,20,17,33,5.50
2023,04,20,17,34,5.50
2023,04,20,17,35,5.50
2023,04,20,17,36,5.50
2023,04,20,17,37,5.50
2023,04,20,17,38,5.60
2023,04,20,17,39,5.50
2023,04,20,17,40,5.50
2023,04,20,17,41,5.60
2023,04,20,17,42,5.60
2023,04,20,17,43,5.60
2023,04,20,17,44,5.60
2023,04,20,17,45,5.60
2023,04,20,17,46,5.60
2023,04,20,17,47,5.70
2023,04,20,17,48,5.70
2023,04,20,17,49,5.70
2023,04,20,17,50,5.70
2023,04,20,17,51,5.70
2023,04,20,17,52,5.70
2023,04,20,17,53,5.70
2023,04,20,17,54,5.70
2023,04,20,17,55,5.70
2023,04,20,17,56,5.70
2023,04,20,17,57,5.70
2023,04,20,17,58,5.70
2023,04,20,17,59,5.70
2023,04,20,18,00,5.70
2023,04,20,18,01,5.70
2023,04,20,18,02,5.70
2023,04,20,18,03,5.60
2023,04,20,18,04,5.60
2023,04,20,18,05,5.60
2023,04,20,18,06,5.60
2023,04,20,18,07,5.60
2023,04,20,18,08,5.60
2023,04,20,18,09,5.60
2023,04,20,18,10,5.60
2023,04,20,18,11,5.60
2023,04,20,18,12,5.60
2023,04,20,18,13,5.60
2023,04,20,18,14,5.60
2023,04,20,18,15,5.60
2023,04,20,18,16,5.60
2023,04,20,18,17,5.60
2023,04,20,18,18,5.60
2023,04,20,18,19,5.60
2023,04,20,18,20,5.60
2023,04,20,18,21,5.60
2023,04,20,18,22,5.60
2023,04,20,18,23,5.60
2023,04,20,18,24,5.60
2023,04,20,18,25,5.60
2023,04,20,18,26,5.60
2023,04,20,18,27,5.60
2023,04,20,18,28,5.60
2023,04,20,18,29,5.60
2023,04,20,18,30,5.70
2023,04,20,18,31,5.70
2023,04,20,18,32,5.70
2023,04,20,18,33,5.70
2023,04,20,18,34,5.70
2023,04,20,18,35,5.70
2023,04,20,18,36,5.70
2023,04,20,18,37,5.70
2023,04,20,18,38,5.80
2023,04,20,18,39,5.80
2023,04,20,18,40,5.90
2023,04,20,18,41,5.90
2023,04,20,18,42,5.90
2023,04,20,18,43,5.90
2023,04,20,18,44,5.90
2023,04,20,18,45,5.90
2023,04,20,18,46,5.90
2023,04,20,18,47,5.90
2023,04,20,18,48,5.90
2023,04,20,18,49,5.90
2023,04,20,18,50,5.90
2023,04,20,18,51,5.90
2023,04,20,18,52,5.90
2023,04,20,18,53,5.90
2023,04,20,18,54,5.80
2023,04,20,18,55,5.80
2023,04,20,18,56,5.80
2023,04,20,18,57,5.80
2023,04,20,18,58,5.80
2023,04,20,18,59,5.80
2023,04,20,19,00,5.90
2023,04,20,19,01,5.90
2023,04,20,19,02,5.90
2023,04,20,19,03,5.90
2023,04,20,19,04,6.00
2023,04,20,19,05,6.00
2023,04,20,19,06,6.10
2023,04,20,19,07,6.10
2023,04,20,19,08,6.20
2023,04,20,19,09,6.20
2023,04,20,19,10,6.20
2023,04,20,19,11,6.20
2023,04,20,19,12,6.20
2023,04,20,19,13,6.20
2023,04,20,19,14,6.20
2023,04,20,19,15,6.20
2023,04,20,19,16,6.20
2023,04,20,19,17,6.20
2023,04,20,19,18,6.20
2023,04,20,19,19,6.30
2023,04,20,19,20,6.30
2023,04,20,19,21,6.30
2023,04,20,19,22,6.30
2023,04,20,19,23,6.30
2023,04,20,19,24,6.30
2023,04,20,19,25,6.30
2023,04,20,19,26,6.20
2023,04,20,19,27,6.20
2023,04,20,19,28,6.20
2023,04,20,19,29,6.10
2023,04,20,19,30,6.10
2023,04,20,19,31,6.10
2023,04,20,19,32,6.00
2023,04,20,19,33,6.00
2023,04,20,19,34,5.90
2023,04,20,19,35,5.90
2023,04,20,19,36,5.90
2023,04,20,19,37,5.90
2023,04,20,19,38,5.90
2023,04,20,19,39,5.90
2023,04,20,19,40,5.90
2023,04,20,19,41,5.80
2023,04,20,19,42,5.80
2023,04,20,19,43,5.80
2023,04,20,19,44,5.80
2023,04,20,19,45,5.80
2023,04,20,19,46,5.80
2023,04,20,19,47,5.80
2023,04,20,19,48,5.80
2023,04,20,19,49,5.80
2023,04,20,19,50,5.80
2023,04,20,19,51,5.80
2023,04,20,19,52,5.80
2023,04,20,19,53,5.80
2023,04,20,19,54,5.80
2023,04,20,19,55,5.80
2023,04,20,19,56,5.90
2023,04,20,19,57,5.90
2023,04,20,19,58,5.90
2023,04,20,19,59,5.90
2023,04,20,20,00,5.90
2023,04,20,20,01,5.90
2023,04,20,20,02,5.90
2023,04,20,20,03,5.90
2023,04,20,20,04,5.90
2023,04,20,20,05,5.90
2023,04,20,20,06,5.90
2023,04,20,20,07,5.90
2023,04,20,20,08,5.90
2023,04,20,20,09,5.90
2023,04,20,20,10,5.90
2023,04,20,20,11,5.90
2023,04,20,20,12,5.90
2023,04,20,20,13,5.90
2023,04,20,20,14,5.90
2023,04,20,20,15,5.90
2023,04,20,20,16,5.90
2023,04,20,20,17,5.90
2023,04,20,20,18,5.90
2023,04,20,20,19,5.90
2023,04,20,20,20,5.90
2023,04,20,20,21,5.90
2023,04,20,20,22,5.90
2023,04,20,20,23,5.90
2023,04,20,20,24,5.90
2023,04,20,20,25,5.90
2023,04,20,20,26,5.90
2023,04,20,20,27,5.90
2023,04,20,20,28,5.90
2023,04,20,20,29,5.80
2023,04,20,20,30,5.80
2023,04,20,20,31,5.80
2023,04,20,20,32,5.80
2023,04,20,20,33,5.80
2023,04,20,20,34,5.80
2023,04,20,20,35,5.80
2023,04,20,20,36,5.80
2023,04,20,20,37,5.80
2023,04,20,20,38,5.80
2023,04,20,20,39,5.80
2023,04,20,20,40,5.80
2023,04,20,20,41,5.80
2023,04,20,20,42,5.80
2023,04,20,20,43,5.80
2023,04,20,20,44,5.80
2023,04,20,20,45,5.70
2023,04,20,20,46,5.70
2023,04,20,20,47,5.70
2023,04,20,20,48,5.70
2023,04,20,20,49,5.70
2023,04,20,20,50,5.70
2023,04,20,20,51,5.70
2023,04,20,20,52,5.70
2023,04,20,20,53,5.70
2023,04,20,20,54,5.70
2023,04,20,20,55,5.70
2023,04,20,20,56,5.70
2023,04,20,20,57,5.70
2023,04,20,20,58,5.70
2023,04,20,20,59,5.70
2023,04,20,21,00,5.70
2023,04,20,21,01,5.70
2023,04,20,21,02,5.70
2023,04,20,21,03,5.70
2023,04,20,21,04,5.60
2023,04,20,21,05,5.70
2023,04,20,21,06,5.60
2023,04,20,21,07,5.60
2023,04,20,21,08,5.60
2023,04,20,21,09,5.60
2023,04,20,21,10,5.60
2023,04,20,21,11,5.60
2023,04,20,21,12,5.60
2023,04,20,21,13,5.60
2023,04,20,21,14,5.60
2023,04,20,21,15,5.60
2023,04,20,21,16,5.60
2023,04,20,21,17,5.60
2023,04,20,21,18,5.60
2023,04,20,21,19,5.60
2023,04,20,21,20,5.60
2023,04,20,21,21,5.60
2023,04,20,21,22,5.60
2023,04,20,21,23,5.60
2023,04,20,21,24,5.60
2023,04,20,21,25,5.60
2023,04,20,21,26,5.60
2023,04,20,21,27,5.60
2023,04,20,21,28,5.60
2023,04,20,21,29,5.60
2023,04,20,21,30,5.60
2023,04,20,21,31,5.60
2023,04,20,21,32,5.70
2023,04,20,21,33,5.70
2023,04,20,21,34,5.70
2023,04,20,21,35,5.70
2023,04,20,21,36,5.70
2023,04,20,21,37,5.70
2023,04,20,21,38,5.70
2023,04,20,21,39,5.70
2023,04,20,21,40,5.70
2023,04,20,21,41,5.70
2023,04,20,21,42,5.70
2023,04,20,21,43,5.70
2023,04,20,21,44,5.70
2023,04,20,21,45,5.70
2023,04,20,21,46,5.70
2023,04,20,21,47,5.70
2023,04,20,21,48,5.70
2023,04,20,21,49,5.70
2023,04,20,21,50,5.70
2023,04,20,21,51,5.70
2023,04,20,21,52,5.70
2023,04,20,21,53,5.70
2023,04,20,21,54,5.70
2023,04,20,21,55,5.70
2023,04,20,21,56,5.70
2023,04,20,21,57,5.70
2023,04,20,21,58,5.80
2023,04,20,21,59,5.80
2023,04,20,22,00,5.80
2023,04,20,22,01,5.80
2023,04,20,22,02,5.80
2023,04,20,22,03,5.80
2023,04,20,22,04,5.80
2023,04,20,22,05,5.80
2023,04,20,22,06,5.80
2023,04,20,22,07,5.80
2023,04,20,22,08,5.80
2023,04,20,22,09,5.80
2023,04,20,22,10,5.80
2023,04,20,22,11,5.80
2023,04,20,22,12,5.80
2023,04,20,22,13,5.80
2023,04,20,22,14,5.80
2023,04,20,22,15,5.80
2023,04,20,22,16,5.80
2023,04,20,22,17,5.80
2023,04,20,22,18,5.80
2023,04,20,22,19,5.80
2023,04,20,22,20,5.80
2023,04,20,22,21,5.80
2023,04,20,22,22,5.80
2023,04,20,22,23,5.80
2023,04,20,22,24,5.80
2023,04,20,22,25,5.80
2023,04,20,22,26,5.80
2023,04,20,22,27,5.80
2023,04,20,22,28,5.80
2023,04,20,22,29,5.80
2023,04,20,22,30,5.80
2023,04,20,22,31,5.80
2023,04,20,22,32,5.80
2023,04,20,22,33,5.90
2023,04,20,22,34,5.90
2023,04,20,22,35,5.90
2023,04,20,22,36,5.90
2023,04,20,22,37,5.90
2023,04,20,22,38,5.90
2023,04,20,22,39,5.90
2023,04,20,22,40,5.90
2023,04,20,22,41,5.90
2023,04,20,22,42,5.90
2023,04,20,22,43,5.90
2023,04,20,22,44,5.90
2023,04,20,22,45,5.90
2023,04,20,22,46,5.90
2023,04,20,22,47,5.90
2023,04,20,22,48,5.90
2023,04,20,22,49,5.90
2023,04,20,22,50,5.90
2023,04,20,22,51,5.90
2023,04,20,22,52,5.90
2023,04,20,22,53,5.90
2023,04,20,22,54,5.90
2023,04,20,22,55,5.90
2023,04,20,22,56,5.90
2023,04,20,22,57,5.90
2023,04,20,22,58,5.90
2023,04,20,22,59,5.90
2023,04,20,23,00,5.90
2023,04,20,23,01,5.90
2023,04,20,23,02,5.90
2023,04,20,23,03,5.90
2023,04,20,23,04,5.90
2023,04,20,23,05,5.90
2023,04,20,23,06,5.90
2023,04,20,23,07,5.90
2023,04,20,23,08,5.90
2023,04,20,23,09,5.90
2023,04,20,23,10,5.90
2023,04,20,23,11,5.90
2023,04,20,23,12,5.90
2023,04,20,23,13,5.90
2023,04,20,23,14,5.90
2023,04,20,23,15,5.90
2023,04,20,23,16,5.90
2023,04,20,23,17,5.90
2023,04,20,23,18,5.90
2023,04,20,23,19,5.80
2023,04,20,23,20,5.80
2023,04,20,23,21,5.80
2023,04,20,23,22,5.80
2023,04,20,23,23,5.80
2023,04,20,23,24,5.80
2023,04,20,23,25,5.80
2023,04,20,23,26,5.80
2023,04,20,23,27,5.80
2023,04,20,23,28,5.80
2023,04,20,23,29,5.80
2023,04,20,23,30,5.80
2023,04,20,23,31,5.80
2023,04,20,23,32,5.80
2023,04,20,23,33,5.80
2023,04,20,23,34,5.70
2023,04,20,23,35,5.70
2023,04,20,23,36,5.70
2023,04,20,23,37,5.70
2023,04,20,23,38,5.70
2023,04,20,23,39,5.70
2023,04,20,23,40,5.70
2023,04,20,23,41,5.70
2023,04,20,23,42,5.70
2023,04,20,23,43,5.70
2023,04,20,23,44,5.70
2023,04,20,23,45,5.60
2023,04,20,23,46,5.60
2023,04,20,23,47,5.60
2023,04,20,23,48,5.60
2023,04,20,23,49,5.60
2023,04,20,23,50,5.60
2023,04,20,23,51,5.60
2023,04,20,23,52,5.60
2023,04,20,23,53,5.60
2023,04,20,23,54,5.60
2023,04,20,23,55,5.60
2023,04,20,23,56,5.60
2023,04,20,23,57,5.50
2023,04,20,23,58,5.50
2023,04,20,23,59,5.50
